Retour au catalogue

STARLINK-11521

ActifCommunicationsVLEO
NORAD 62597·PAYLOAD·🇺🇸 United States

Lancé Jan 13, 2025 depuis Cape Canaveral Space Force Station

Loading…

Prochains Passages (prochaines 24 heures)

TLE

FraisSource: CelesTrak SupGP

Époque: Sep 14, 2026, 20:42 UTC

1 62597C 25008L   26257.86298611 -.00000131  00000+0 -10142-5 0  2573
2 62597  43.0011  65.7206 0001884 276.5188 246.8226 15.70835000    14

Suivez STARLINK-11521 en temps réel avec AllMySat

Download on the App Store